Hourly Data Report for December 17, 2017

All times are specified in Local Standard Time (LST). Add 1 hour to adjust for Daylight Saving Time where and when it is observed.

NAUJAAT A
NUNAVUT

66°31'14.000" N
86°13'29.000" W
22.90 m
2403495
YUT

Related Data

No related data is available for this station

Download Data

Hourly Data (December 2017)
Hourly Data Report for December 17, 2017
Temp Definition
°C
Dew Point Temp Definition
°C
Rel Hum Definition
%
Wind Dir Definition
10's deg

Wind Spd Definition
km/h
Visibility Definition
km
Stn Press Definition
kPa
Hmdx Definition


Wind Chill Definition


Weather Definition


TIME
00:00 Legend Double Dagger -28.9 -32.6 72 27 7 LegendMM 100.14   -36 LegendNANA
01:00 Legend Double Dagger -29.1 -32.9 71 30 7 LegendMM 100.14   -36 LegendNANA
02:00 Legend Double Dagger -28.4 -32.1 71 32 11 LegendMM 100.15   -38 LegendNANA
03:00 Legend Double Dagger -27.6 -31.3 71 30 11 LegendMM 100.15   -37 LegendNANA
04:00 Legend Double Dagger -27.2 -30.8 72 30 8 LegendMM 100.13   -35 LegendNANA
05:00 Legend Double Dagger -27.8 -31.5 72 32 10 LegendMM 100.11   -37 LegendNANA
06:00 Legend Double Dagger -28.2 -32.0 71 32 10 LegendMM 100.08   -37 LegendNANA
07:00 Legend Double Dagger -28.1 -31.8 71 29 3 LegendMM 100.04   -31 LegendNANA
08:00 Legend Double Dagger -27.5 -31.3 71 30 9 LegendMM 100.01   -36 LegendNANA
09:00 Legend Double Dagger -26.3 -30.0 71 29 7 LegendMM 99.98   -33 LegendNANA
10:00 Legend Double Dagger -26.0 -29.7 71 28 5 LegendMM 99.97   -31 LegendNANA
11:00 Legend Double Dagger -25.9 -29.6 72 32 10 LegendMM 99.94   -34 LegendNANA
12:00 Legend Double Dagger -25.9 -29.6 72 32 8 LegendMM 99.90   -33 LegendNANA
13:00 Legend Double Dagger -25.6 -29.2 72 32 8 LegendMM 99.89   -33 LegendNANA
14:00 Legend Double Dagger -25.4 -28.9 73 32 5 LegendMM 99.88   -30 LegendNANA
15:00 Legend Double Dagger -25.1 -28.8 72 29 7 LegendMM 99.87   -32 LegendNANA
16:00 Legend Double Dagger -24.9 -28.7 72 33 6 LegendMM 99.85   -31 LegendNANA
17:00 Legend Double Dagger -24.6 -28.4 71 34 8 LegendMM 99.81   -32 LegendNANA
18:00 Legend Double Dagger -24.4 -28.3 70 33 12 LegendMM 99.79   -33 LegendNANA
19:00 Legend Double Dagger -24.6 -28.3 72 29 6 LegendMM 99.76   -30 LegendNANA
20:00 Legend Double Dagger -24.1 -28.0 71 32 11 LegendMM 99.73   -33 LegendNANA
21:00 Legend Double Dagger -24.0 -27.9 71 28 7 LegendMM 99.71   -30 LegendNANA
22:00 Legend Double Dagger -24.4 -28.3 71 31 6 LegendMM 99.69   -30 LegendNANA
23:00 Legend Double Dagger -24.7 -28.4 72 35 16 LegendMM 99.65   -35 LegendNANA

Notes on Data Quality.

Legend

  • E = Estimated
  • M = Missing
  • NA = Not Available
  • ‡ = Partner data that is not subject to review by the National Climate Archives
Date modified: